MIDAS 5 DEB, 274

Orbit data source: Space-Track

MIDAS 5 DEB, 274 is space debris in LEO originally from a launch on Mon, 09 Apr 1962 UTC launched from the Air Force Western Test Range (AFWTR). Debris objects in space refer to the collection of defunct objects orbiting the Earth. Examples of debris include non-operational satellites, rocket bodies, and fragments generated from explosions, collisions, or faulty payload assembly.

Loading next visibility...
Identifier
274, 1962-010D
Orbit
LEO
Country
Flag of USUS
Related business
Manufacturer
Unknown
Mission
Spacecraft
Bus & Motor
Unknown
Mass
~10 kg wet, ~10 kg dry
Launch date (UTC)
1962-04-09 (64 years ago)
Launch vehicle
Unknown
Launch site
Air Force Western Test Range (AFWTR)
Object type
Payload
Rocket body
Debris
Shape & HBR
PAN, 0.5 m
Radar Cross Section
Medium (>0.1 m² and <1 m²)

Expand to show TLE details & history
Last TLE update: 19 hours ago

TLE from 19 hours ago
0 MIDAS 5 DEB
1 00274U 62010D   26254.09626146 -.00000051  00000-0 -11545-1 0  9990
2 00274  86.6708 321.2345 0345537  64.7106 298.9179  9.39364143208851
Epoch: 2026-09-11T02:18Z
TLE epoch observation values (Epoch: 2026-09-11T02:18:36.990Z)
Latitude
0.00001°
Longitude
-63.54415°
Altitude
2,962.61 km
Speed
6.585 km/s
True Right ascension
21h 24m 56s
True Declination
0° 00' 00"
Sunlit
Object was in full shadow at epoch
Visualization orbit readout
Latitude
Unknown
Longitude
Unknown
Altitude
Unknown
Speed
Unknown
Apparent Right ascension
Unknown
Apparent Declination
Unknown
Sunlit
N/A
Visualization observer readout
Local Sidereal Time
13:17:14
Azimuth
Unknown
Elevation
Unknown
Doppler factor
Unknown
Orbital elements
Apogee altitude
3,435.436 km
Perigee altitude
2,779.897 km
Semi-major axis
9,485.803 km
Eccentricity
0.03455
Inclination
86.6708°
RAAN
321.2345°
Arg. of periapsis
64.7106°
True anomaly
295.38043°
Mean anomaly
298.9179°
Eccentric anomaly
297.15636°
Mean motion
2.34926 °/min
Orbital period
153.24 mins
BSTAR
-0.011545
Loading maneuver chart data...
Computing Atmospheric mass density...
Loading historical data...
Loading historical data...
Loading historical data...
Loading historical data...
Loading historical data...
Loading historical data...
Loading historical data...

Documentation

Showing up to 5 results
|